パンスターズ彗星

P/2017 P1 ( PanSTARRS )

English version
Home page
Updated on October 9, 2017

---------------------------------------------------------------------

・ プロフィール

発見日 2017年8月15日
発見光度 20.8等
発見者 Pan-STARRS 1 telescope (Haleakala)

・ 写真集

・ 軌道要素

Epoch 2018 June 11.0 TT = JDT 2458280.5
T 2018 June 17.06904 TT                                 MPCW
q   5.4389189            (2000.0)            P               Q
n   0.04463765     Peri.  122.14088     +0.95393072     +0.28664335
a   7.8704915      Node   221.39169     -0.29995939     +0.90490455
e   0.3089480      Incl.    7.70159     -0.00636736     +0.31461619
P  22.08
From 42 observations 2017 June 25-Aug. 24, mean residual 0".4.

・ 光度変化

        m1 = 9.5 + 5 logΔ + 10.0 log r

---------------------------------------------------------------------

軌道要素はM.P.E.C. 2017-T14に掲載されたものです。
光度グラフはComet for Windowsで作成したものです。

---------------------------------------------------------------------

Copyright(C) Seiichi Yoshida (comet@aerith.net). All rights reserved.